Content
SEND FEEDBACK

Daily
Averages
Monthly
Summary
United States of America

CERES, VIRGINIA


Home > North America > United States > Virginia
Elevation: 3119 feet     Latitude: 37 05N     Longitude: 081 20W

WEATHER
 
SELECT A DAY
Number of Records: 433,630;   Date Range: 4/23/95 - 8/30/14
 
SHARE

PRINT THIS DATA

[ ← Previous Day ]
WEATHER ALMANAC - FEBRUARY 13, 2013
[ Next Day → ]
[ °C ]   °F
Weather ElementAverageHighLow
Temperature40.5 °F45.5 °F (3:55 pm)35.8 °F (11:55 pm)
Dewpoint37 °F45.3 °F (3:15 pm)30.2 °F (1:15 am)
Humidity88.1 %100 % (7:15 am)62 % (1:15 am)
Barometer29.75 in29.91 in (12:35 am)29.61 in (1:15 pm)
Wind Speed10.1 mph24.2 mph (3:35 pm)
Wind Gust33.4 mph (3:35 pm)
Weather ElementAverage
Visibility9.3 mi
Wind DirectionSSE (159.9 °)

Weather ElementTotal
Precipitation0.55 in
Heating Degree Days24.4 (Base 65)
Averaged from 71 records on February 13, 2013
WEATHER CONDITIONS BREAKOUT
WIND DIRECTION BREAKOUT
WEATHER BY HOUR - FEBRUARY 13, 2013
[ °C ]   °F
Local TimeTemperatureDewpointHumidityBarometerVisibilityWind DirectionWind SpeedGust SpeedPrecipitationEventsConditions
12:35 AM42.1 °F30.4 °F63 %29.91 in10.0 miCalmOvercast
12:55 AM42.1 °F30.4 °F63 %29.89 in10.0 miCalmOvercast
1:15 AM42.3 °F30.2 °F62 %29.86 in10.0 miNE (50°)4.6 mphOvercast
1:35 AM42.3 °F31.1 °F65 %29.88 in10.0 miNE (40°)3.5 mphOvercast
1:55 AM42.1 °F31.3 °F66 %29.87 in10.0 miNNE (30°)8.1 mphOvercast
2:15 AM42.1 °F32.0 °F67 %29.87 in10.0 miENE (70°)3.5 mphOvercast
2:35 AM42.1 °F32.5 °F69 %29.87 in10.0 miNNE (20°)6.9 mphOvercast
2:55 AM42.1 °F33.3 °F71 %29.86 in10.0 miNE (40°)4.6 mphOvercast
3:15 AM42.1 °F34.2 °F74 %29.84 in10.0 miNNE (30°)5.8 mphOvercast
3:35 AM41.4 °F33.6 °F74 %29.82 in10.0 miENE (60°)5.8 mphOvercast
3:55 AM40.5 °F34.0 °F78 %29.81 in10.0 miENE (70°)3.5 mphMostly Cloudy
4:15 AM41.0 °F33.4 °F74 %29.81 in10.0 miCalmOvercast
4:35 AM40.6 °F33.3 °F75 %29.80 in10.0 miESE (120°)3.5 mphOvercast
4:55 AM40.5 °F34.3 °F79 %29.79 in10.0 miESE (110°)4.6 mphOvercast
5:15 AM40.3 °F34.7 °F80 %29.77 in10.0 miEast (90°)4.6 mphOvercast
5:35 AM40.5 °F35.6 °F83 %29.78 in10.0 miEast (90°)5.8 mphOvercast
5:55 AM40.1 °F36.5 °F87 %29.77 in10.0 miENE (60°)6.9 mphRainLight Rain
6:15 AM40.1 °F38.7 °F95 %29.77 in10.0 miNNE (30°)6.9 mph0.02 inRainRain
6:35 AM39.7 °F39.4 °F99 %29.76 in10.0 miENE (70°)5.8 mph0.04 inRainRain
6:55 AM39.4 °F39.2 °F99 %29.75 in10.0 miNE (50°)8.1 mph0.05 inRainLight Rain
7:15 AM39.4 °F39.4 °F100 %29.75 in10.0 miENE (60°)6.9 mphOvercast
7:35 AM39.4 °F39.4 °F100 %29.75 in10.0 miNE (40°)8.1 mphOvercast
7:55 AM39.4 °F39.4 °F100 %29.74 in10.0 miENE (60°)10.4 mphRainLight Rain
8:15 AM39.6 °F39.6 °F100 %29.75 in4.0 miEast (90°)6.9 mph0.01 inRainRain
8:35 AM40.1 °F40.1 °F100 %29.74 in4.0 miEast (80°)6.9 mph0.03 inRainLight Rain
8:55 AM40.3 °F40.3 °F100 %29.73 in4.0 miEast (100°)9.2 mph0.03 inRainLight Rain
9:15 AM40.6 °F40.6 °F100 %29.72 in7.0 miEast (90°)9.2 mph0.01 inRainLight Rain
9:35 AM40.8 °F40.8 °F100 %29.72 in10.0 miENE (60°)9.2 mph0.02 inOvercast
9:55 AM41.0 °F41.0 °F100 %29.70 in10.0 miENE (70°)11.5 mph0.02 inOvercast
10:15 AM41.4 °F41.4 °F100 %29.70 in10.0 miENE (70°)9.2 mphOvercast
10:35 AM41.9 °F41.9 °F100 %29.70 in10.0 miEast (80°)8.1 mphOvercast
10:55 AM42.3 °F42.1 °F99 %29.70 in10.0 miENE (60°)10.4 mphOvercast
11:15 AM43.3 °F42.1 °F95 %29.68 in10.0 miENE (70°)6.9 mphOvercast
11:35 AM43.7 °F40.1 °F87 %29.68 in10.0 miESE (120°)9.2 mph16.1 mphOvercast
11:55 AM44.4 °F40.8 °F87 %29.67 in10.0 miESE (110°)8.1 mphOvercast
12:15 PM43.7 °F42.8 °F97 %29.66 in10.0 miESE (110°)8.1 mphRainLight Rain
12:35 PM43.7 °F41.7 °F93 %29.63 in10.0 miESE (110°)8.1 mphOvercast
12:55 PM43.9 °F42.6 °F95 %29.62 in10.0 miESE (110°)5.8 mph0.01 inRainLight Rain
1:15 PM44.6 °F42.6 °F93 %29.61 in10.0 miEast (100°)3.5 mphRainLight Rain
1:35 PM44.8 °F42.3 °F91 %29.62 in7.0 miWest (270°)3.5 mph0.01 inRainLight Rain
1:55 PM44.2 °F44.2 °F100 %29.62 in7.0 miWNW (300°)3.5 mph0.05 inRainRain
2:15 PM44.2 °F44.2 °F100 %29.62 in7.0 miWest (260°)4.6 mph0.04 inRainLight Rain
2:35 PM44.8 °F44.8 °F100 %29.61 in7.0 miSW (230°)4.6 mph0.05 inRainLight Rain
2:55 PM45.1 °F45.1 °F100 %29.61 in7.0 miWSW (250°)9.2 mph0.06 inRainLight Rain
3:15 PM45.3 °F45.3 °F100 %29.61 in7.0 miWSW (240°)15.0 mph20.7 mphLight Drizzle
3:35 PM45.0 °F45.0 °F100 %29.61 in4.0 miWest (260°)24.2 mph33.4 mph0.02 inRainLight Rain
3:55 PM45.5 °F43.5 °F93 %29.61 in10.0 miWest (260°)21.9 mph32.2 mph0.03 inOvercast
4:15 PM44.6 °F44.1 °F98 %29.61 in7.0 miWest (260°)19.6 mph27.6 mph0.01 inRainLight Rain
4:35 PM42.1 °F38.5 °F87 %29.63 in5.0 miWest (280°)21.9 mph32.2 mph0.02 inRainLight Rain
4:55 PM40.1 °F35.8 °F85 %29.66 in10.0 miWNW (300°)18.4 mph29.9 mph0.02 inOvercast
5:15 PM39.0 °F36.0 °F89 %29.68 in10.0 miWNW (290°)15.0 mph24.2 mphRainLight Rain
5:35 PM38.3 °F33.6 °F83 %29.70 in10.0 miWest (280°)11.5 mph16.1 mphRainLight Rain
5:55 PM38.3 °F33.3 °F82 %29.72 in10.0 miWest (260°)20.7 mph28.8 mphOvercast
6:15 PM37.4 °F34.0 °F87 %29.73 in10.0 miWest (270°)21.9 mph26.5 mphOvercast
6:35 PM37.0 °F34.5 °F91 %29.75 in10.0 miWest (270°)18.4 mph26.5 mphOvercast
6:55 PM36.9 °F33.6 °F88 %29.77 in10.0 miWest (270°)16.1 mphOvercast
7:15 PM36.7 °F33.8 °F89 %29.77 in10.0 miWest (260°)15.0 mphOvercast
7:35 PM36.7 °F33.4 °F88 %29.78 in10.0 miWest (260°)15.0 mphOvercast
7:55 PM36.5 °F32.5 °F86 %29.80 in10.0 miWNW (290°)13.8 mph23.0 mphOvercast
8:15 PM36.5 °F32.5 °F86 %29.81 in10.0 miWest (280°)19.6 mph26.5 mphOvercast
8:35 PM36.1 °F33.8 °F91 %29.81 in10.0 miWest (280°)16.1 mph26.5 mphOvercast
8:55 PM36.3 °F32.5 °F86 %29.82 in10.0 miWNW (290°)11.5 mph20.7 mphOvercast
9:15 PM36.5 °F32.0 °F84 %29.81 in10.0 miWest (280°)13.8 mph23.0 mphOvercast
9:35 PM36.1 °F33.1 °F89 %29.82 in10.0 miWest (280°)12.7 mph16.1 mphOvercast
9:55 PM36.1 °F33.4 °F90 %29.83 in10.0 miWNW (290°)13.8 mphOvercast
10:15 PM36.1 °F34.3 °F93 %29.84 in10.0 miWest (280°)10.4 mph26.5 mphOvercast
10:35 PM36.1 °F34.0 °F92 %29.84 in10.0 miWest (280°)16.1 mph23.0 mphOvercast
10:55 PM36.0 °F32.2 °F86 %29.84 in10.0 miWest (270°)15.0 mph23.0 mphOvercast
11:15 PM36.0 °F32.0 °F86 %29.86 in10.0 miWest (270°)11.5 mph20.7 mphOvercast
11:35 PM36.0 °F31.8 °F85 %29.86 in10.0 miWNW (290°)18.4 mph25.3 mphOvercast
11:55 PM35.8 °F31.5 °F84 %29.86 in10.0 miWest (280°)18.4 mph24.2 mphOvercast
Hourly data recorded from KMKJ, located miles away from Ceres, Virginia







STORIES FROM OUR PARTNERS